Weather History for Kill Devil Hills, NC

Change the Weather History Date:

Friday, May 31, 2013

  Actual Average (KMQI) Record (KMQI)
Temperature  
Mean Temperature 75 °F -  
Max Temperature 82 °F 74 °F 95 °F (1991)
Min Temperature 68 °F 63 °F 51 °F (1967)
Cooling Degree Days 10    
Growing Degree Days 25 (Base 50)    
Moisture  
Dew Point 66 °F    
Average Humidity 76    
Maximum Humidity 95    
Minimum Humidity 53    
Precipitation  
Precipitation 0.00 in - - ()
Sea Level Pressure  
Sea Level Pressure 30.19 in    
Wind  
Wind Speed 6 mph (SSW)    
Max Wind Speed 13 mph    
Max Gust Speed 20 mph    
Visibility 10 miles    
Events      
Averages and records for this station are not official NWS values.
T = Trace of Precipitation, MM = Missing Value Source: NWS Daily Summary

Daily Weather History Graph

Daily Weather History Graph

Search for Another Location

Airport:

Trip Planner

Search our weather history database for the weather conditions in past years. The results will help you decide how hot, cold, wet, or windy it might be!

Date:

Astronomy

May. 31, 2013 Rise Set
Actual Time 5:47 AM EDT 8:13 PM EDT
Civil Twilight 5:17 AM EDT 8:43 PM EDT
Nautical Twilight 4:41 AM EDT 9:20 PM EDT
Astronomical Twilight 4:01 AM EDT 10:00 PM EDT
Moon 12:55 AM EDT (5/31) 12:50 PM EDT (5/31)
Length of Visible Light 15h 25m
Length of Day
14h 26m
Waning Gibbous, 51% of the Moon is Illuminated
May 31
Waning Gibbous
May 31
Last Quarter
Jun 8
New
Jun 16
First Quarter
Jun 23
Full

Hourly Weather History & Observations

Time (EDT) Temp. Heat Index Dew Point Humidity Pressure Visibility Wind Dir Wind Speed Gust Speed Precip Events Conditions
12:15 AM 71.4 °F - 67.1 °F 86% 30.21 in 10.0 mi SSW 5.8 mph - N/A   Clear
12:35 AM 71.2 °F - 67.1 °F 87% 30.21 in 10.0 mi SSW 4.6 mph - N/A   Clear
12:55 AM 71.1 °F - 67.3 °F 88% 30.21 in 10.0 mi SSW 3.5 mph - N/A   Clear
1:15 AM 70.9 °F - 67.5 °F 89% 30.21 in 10.0 mi SSW 3.5 mph - N/A   Clear
1:35 AM 70.7 °F - 67.5 °F 89% 30.20 in 10.0 mi SSW 5.8 mph - N/A   Clear
1:55 AM 70.7 °F - 67.6 °F 90% 30.20 in 10.0 mi SW 4.6 mph - N/A   Clear
2:15 AM 70.5 °F - 67.6 °F 91% 30.20 in 10.0 mi SW 5.8 mph - N/A   Clear
2:35 AM 70.3 °F - 67.6 °F 91% 30.20 in 10.0 mi SW 4.6 mph - N/A   Clear
2:55 AM 70.0 °F - 67.6 °F 92% 30.20 in 10.0 mi SW 4.6 mph - N/A   Clear
3:15 AM 69.8 °F - 68.0 °F 94% 30.20 in 10.0 mi SW 4.6 mph - N/A   Clear
3:35 AM 69.8 °F - 68.0 °F 94% 30.20 in 10.0 mi WSW 5.8 mph - N/A   Clear
3:55 AM 69.6 °F - 67.8 °F 94% 30.20 in 10.0 mi SW 4.6 mph - N/A   Clear
4:15 AM 69.6 °F - 67.8 °F 94% 30.21 in 10.0 mi SW 4.6 mph - N/A   Clear
4:35 AM 69.3 °F - 67.5 °F 94% 30.21 in 10.0 mi WSW 5.8 mph - N/A   Clear
4:55 AM 69.1 °F - 67.3 °F 94% 30.22 in 10.0 mi WSW 4.6 mph - N/A   Clear
5:15 AM 68.9 °F - 67.3 °F 95% 30.22 in 10.0 mi WSW 4.6 mph - N/A   Clear
5:35 AM 68.7 °F - 67.1 °F 95% 30.23 in 10.0 mi WSW 4.6 mph - N/A   Clear
5:55 AM 68.7 °F - 67.1 °F 95% 30.23 in 10.0 mi WSW 3.5 mph - N/A   Clear
6:15 AM 68.9 °F - 67.3 °F 95% 30.24 in 10.0 mi WSW 4.6 mph - N/A   Clear
6:35 AM 69.3 °F - 67.5 °F 94% 30.24 in 10.0 mi WSW 4.6 mph - N/A   Clear
6:55 AM 70.2 °F - 67.8 °F 92% 30.25 in 10.0 mi WSW 5.8 mph - N/A   Clear
7:15 AM 71.1 °F - 67.8 °F 89% 30.25 in 10.0 mi SW 5.8 mph - N/A   Clear
7:35 AM 71.8 °F - 68.2 °F 88% 30.25 in 10.0 mi WSW 5.8 mph - N/A   Clear
7:55 AM 72.3 °F - 68.2 °F 87% 30.25 in 10.0 mi WSW 6.9 mph - N/A   Clear
8:15 AM 73.0 °F - 68.2 °F 85% 30.25 in 10.0 mi West 5.8 mph - N/A   Clear
8:35 AM 73.6 °F - 68.4 °F 84% 30.25 in 10.0 mi West 4.6 mph - N/A   Clear
8:55 AM 74.3 °F - 68.5 °F 82% 30.24 in 10.0 mi WSW 5.8 mph - N/A   Scattered Clouds
9:15 AM 74.8 °F - 68.5 °F 81% 30.24 in 10.0 mi SW 4.6 mph - N/A   Scattered Clouds
9:35 AM 76.1 °F - 68.4 °F 77% 30.24 in 10.0 mi SW 3.5 mph - N/A   Scattered Clouds
9:55 AM 76.8 °F - 67.3 °F 72% 30.23 in 10.0 mi West 6.9 mph - N/A   Scattered Clouds
10:15 AM 77.4 °F - 66.7 °F 70% 30.23 in 10.0 mi WSW 5.8 mph - N/A   Clear
10:35 AM 78.1 °F - 66.2 °F 67% 30.24 in 10.0 mi WSW 4.6 mph - N/A   Clear
10:55 AM 79.2 °F - 66.0 °F 64% 30.24 in 10.0 mi South 5.8 mph - N/A   Clear
11:15 AM 79.0 °F - 66.4 °F 65% 30.24 in 10.0 mi South 5.8 mph - N/A   Clear
11:35 AM 79.5 °F - 66.0 °F 63% 30.23 in 10.0 mi SSE 3.5 mph - N/A   Clear
11:55 AM 80.2 °F 82.1 °F 65.3 °F 60% 30.23 in 10.0 mi SSE 3.5 mph - N/A   Clear
12:15 PM 80.8 °F 82.6 °F 65.1 °F 59% 30.23 in 10.0 mi SE 4.6 mph - N/A   Clear
12:35 PM 81.1 °F 83.1 °F 65.7 °F 59% 30.22 in 10.0 mi South 4.6 mph - N/A   Clear
12:55 PM 81.3 °F 83.2 °F 65.3 °F 58% 30.22 in 10.0 mi South 3.5 mph - N/A   Clear
1:15 PM 81.9 °F 84.1 °F 66.4 °F 59% 30.21 in 10.0 mi SE 6.9 mph - N/A   Clear
1:35 PM 81.7 °F 84.0 °F 66.6 °F 60% 30.21 in 10.0 mi South 6.9 mph - N/A   Clear
1:55 PM 81.5 °F 83.7 °F 66.6 °F 60% 30.20 in 10.0 mi SE 5.8 mph - N/A   Clear
2:15 PM 82.0 °F 84.3 °F 66.2 °F 59% 30.20 in 10.0 mi South 8.1 mph - N/A   Clear
2:35 PM 81.0 °F 82.5 °F 63.7 °F 56% 30.19 in 10.0 mi SSE 8.1 mph - N/A   Clear
2:55 PM 81.5 °F 82.7 °F 63.0 °F 53% 30.19 in 10.0 mi SE 12.7 mph 19.6 mph N/A   Clear
3:15 PM 81.5 °F 82.7 °F 62.6 °F 53% 30.18 in 10.0 mi SSE 9.2 mph - N/A   Clear
3:35 PM 81.1 °F 82.3 °F 62.8 °F 53% 30.17 in 10.0 mi South 6.9 mph 18.4 mph N/A   Clear
3:55 PM 80.4 °F 81.6 °F 62.2 °F 54% 30.17 in 10.0 mi South 8.1 mph 18.4 mph N/A   Clear
4:15 PM 80.1 °F 81.5 °F 63.3 °F 56% 30.17 in 10.0 mi South 9.2 mph 17.3 mph N/A   Clear
4:35 PM 79.9 °F - 64.2 °F 59% 30.16 in 10.0 mi South 6.9 mph 16.1 mph N/A   Clear
4:55 PM 79.7 °F - 63.5 °F 58% 30.16 in 10.0 mi South 9.2 mph - N/A   Clear
5:15 PM 79.5 °F - 63.1 °F 57% 30.15 in 10.0 mi SSE 11.5 mph 17.3 mph N/A   Clear
5:35 PM 78.8 °F - 63.1 °F 59% 30.15 in 10.0 mi South 9.2 mph 19.6 mph N/A   Clear
5:55 PM 78.3 °F - 63.5 °F 60% 30.15 in 10.0 mi South 5.8 mph - N/A   Clear
6:15 PM 77.7 °F - 63.7 °F 62% 30.14 in 10.0 mi South 8.1 mph - N/A   Clear
6:35 PM 77.2 °F - 65.1 °F 66% 30.14 in 10.0 mi South 6.9 mph - N/A   Clear
6:55 PM 76.5 °F - 65.1 °F 68% 30.14 in 10.0 mi SSE 5.8 mph - N/A   Clear
7:15 PM 76.1 °F - 65.5 °F 70% 30.14 in 10.0 mi South 6.9 mph - N/A   Clear
7:35 PM 75.4 °F - 66.4 °F 73% 30.14 in 10.0 mi South 6.9 mph - N/A   Clear
7:55 PM 74.8 °F - 66.4 °F 75% 30.14 in 10.0 mi South 9.2 mph - N/A   Clear
8:15 PM 74.3 °F - 65.3 °F 73% 30.14 in 10.0 mi South 9.2 mph - N/A   Clear
8:35 PM 74.3 °F - 65.3 °F 73% 30.14 in 10.0 mi SSW 8.1 mph - N/A   Clear
8:55 PM 73.8 °F - 65.7 °F 76% 30.14 in 10.0 mi SSW 8.1 mph - N/A   Clear
9:15 PM 73.6 °F - 65.7 °F 76% 30.14 in 10.0 mi SSW 6.9 mph - N/A   Clear
9:35 PM 73.4 °F - 66.2 °F 78% 30.15 in 10.0 mi SSW 8.1 mph - N/A   Clear
9:55 PM 73.2 °F - 66.7 °F 80% 30.15 in 10.0 mi SSW 4.6 mph - N/A   Clear
10:15 PM 72.9 °F - 67.1 °F 82% 30.15 in 10.0 mi SSW 6.9 mph - N/A   Clear
10:35 PM 72.7 °F - 67.3 °F 83% 30.15 in 10.0 mi SSW 5.8 mph - N/A   Clear
10:55 PM 72.7 °F - 67.3 °F 83% 30.15 in 10.0 mi SSW 5.8 mph - N/A   Clear
11:15 PM 72.5 °F - 67.5 °F 84% 30.15 in 10.0 mi SSW 5.8 mph - N/A   Clear
11:35 PM 72.5 °F - 67.6 °F 85% 30.15 in 10.0 mi SSW 6.9 mph - N/A   Clear
11:55 PM 72.5 °F - 68.0 °F 86% 30.15 in 10.0 mi SW 9.2 mph - N/A   Clear